Monett, MO

4:26 AM CST on February 21, 2017 (GMT -0600)
Monett

Weather History for KHFJ - March, 2013

Change the Weather History Date:

Wednesday, March 27, 2013

  Actual Average (KJLN) Record (KJLN)
Temperature  
Mean Temperature 44 °F -  
Max Temperature 59 °F 63 °F 82 °F (2008)
Min Temperature 28 °F 40 °F 19 °F (1955)
Degree Days  
Heating Degree Days 22    
Moisture  
Dew Point 27 °F    
Average Humidity 58    
Maximum Humidity 86    
Minimum Humidity 29    
Precipitation  
Precipitation 0.00 in - - ()
Sea Level Pressure  
Sea Level Pressure 30.23 in    
Wind  
Wind Speed 9 mph (SE)    
Max Wind Speed 15 mph    
Max Gust Speed 18 mph    
Visibility 10 miles    
Events      
Averages and records for this station are not official NWS values.
T = Trace of Precipitation, MM = Missing Value Source: NWS Daily Summary

Daily Weather History Graph

Daily Weather History Graph

Search for Another Location

Airport or City:

Trip Planner

Search our weather history database for the weather conditions in past years. The results will help you decide how hot, cold, wet, or windy it might be!

Date:

Astronomy

Mar. 27, 2013 Rise Set
Actual Time 7:08 AM CDT 7:34 PM CDT
Civil Twilight 6:42 AM CDT 8:00 PM CDT
Nautical Twilight 6:12 AM CDT 8:30 PM CDT
Astronomical Twilight 5:41 AM CDT 9:02 PM CDT
Moon 8:16 PM CDT (3/27) 7:01 AM CDT (3/27)
Length of Visible Light 13h 17m
Length of Day
12h 25m
Full, 100% of the Moon is Illuminated
Mar 27
Full
Apr 2
Last Quarter
Apr 10
New
Apr 18
First Quarter
Apr 25
Full

Hourly Weather History & Observations

Time (CDT) Temp. Windchill Dew Point Humidity Pressure Visibility Wind Dir Wind Speed Gust Speed Precip Events Conditions
12:15 AM 30.2 °F 24.3 °F 23.0 °F 75% 30.30 in 10.0 mi ESE 5.8 mph - N/A   Clear
12:35 AM 32.0 °F 24.8 °F 23.0 °F 69% 30.29 in 10.0 mi ESE 8.1 mph - N/A   Clear
12:55 AM 30.2 °F 23.4 °F 23.0 °F 75% 30.29 in 10.0 mi ESE 6.9 mph - N/A   Clear
1:15 AM 30.2 °F 22.6 °F 23.0 °F 75% 30.29 in 10.0 mi ESE 8.1 mph - N/A   Clear
1:35 AM 30.2 °F 23.4 °F 23.0 °F 75% 30.29 in 10.0 mi SE 6.9 mph - N/A   Clear
1:55 AM 30.2 °F 23.4 °F 23.0 °F 75% 30.29 in 10.0 mi SE 6.9 mph - N/A   Clear
2:15 AM 30.2 °F 22.6 °F 23.0 °F 75% 30.28 in 10.0 mi ESE 8.1 mph - N/A   Clear
2:35 AM 30.2 °F 23.4 °F 23.0 °F 75% 30.28 in 10.0 mi ESE 6.9 mph - N/A   Clear
2:55 AM 30.2 °F 22.6 °F 23.0 °F 75% 30.27 in 10.0 mi ESE 8.1 mph - N/A   Clear
3:15 AM 30.2 °F 22.6 °F 23.0 °F 75% 30.26 in 10.0 mi ESE 8.1 mph - N/A   Clear
3:35 AM 30.2 °F 22.6 °F 23.0 °F 75% 30.27 in 10.0 mi ESE 8.1 mph - N/A   Clear
3:55 AM 30.2 °F 21.9 °F 23.0 °F 75% 30.27 in 10.0 mi ESE 9.2 mph - N/A   Clear
4:15 AM 30.2 °F 21.9 °F 23.0 °F 75% 30.26 in 10.0 mi ESE 9.2 mph - N/A   Clear
4:35 AM 30.2 °F 21.9 °F 23.0 °F 75% 30.25 in 10.0 mi ESE 9.2 mph - N/A   Clear
4:55 AM 30.2 °F 21.9 °F 23.0 °F 75% 30.26 in 10.0 mi ESE 9.2 mph - N/A   Clear
5:15 AM 30.2 °F 21.9 °F 23.0 °F 75% 30.25 in 10.0 mi ESE 9.2 mph - N/A   Clear
5:35 AM 30.2 °F 21.3 °F 23.0 °F 75% 30.26 in 10.0 mi ESE 10.4 mph - N/A   Clear
5:55 AM 28.4 °F 19.7 °F 23.0 °F 80% 30.26 in 10.0 mi ESE 9.2 mph - N/A   Clear
6:15 AM 30.2 °F 21.9 °F 23.0 °F 75% 30.27 in 10.0 mi ESE 9.2 mph - N/A   Clear
6:35 AM 28.4 °F 19.1 °F 23.0 °F 80% 30.27 in 10.0 mi ESE 10.4 mph - N/A   Clear
6:55 AM 28.4 °F 18.5 °F 23.0 °F 80% 30.27 in 10.0 mi ESE 11.5 mph - N/A   Clear
7:15 AM 30.2 °F 21.9 °F 23.0 °F 75% 30.28 in 10.0 mi ESE 9.2 mph - N/A   Scattered Clouds
7:35 AM 30.2 °F 21.3 °F 23.0 °F 75% 30.29 in 10.0 mi ESE 10.4 mph - N/A   Scattered Clouds
7:55 AM 30.2 °F 21.3 °F 24.8 °F 80% 30.29 in 10.0 mi ESE 10.4 mph - N/A   Clear
8:15 AM 30.2 °F 20.8 °F 26.6 °F 86% 30.29 in 10.0 mi ESE 11.5 mph - N/A   Mostly Cloudy
8:35 AM 32.0 °F 23.6 °F 26.6 °F 80% 30.30 in 10.0 mi ESE 10.4 mph - N/A   Mostly Cloudy
8:55 AM 32.0 °F 23.6 °F 26.6 °F 80% 30.30 in 10.0 mi ESE 10.4 mph - N/A   Scattered Clouds
9:15 AM 33.8 °F 25.8 °F 28.4 °F 81% 30.30 in 10.0 mi ESE 10.4 mph - N/A   Clear
9:55 AM 37.4 °F 30.3 °F 28.4 °F 70% 30.30 in 10.0 mi SE 10.4 mph - N/A   Mostly Cloudy
10:15 AM 41.0 °F 33.9 °F 28.4 °F 61% 30.30 in 10.0 mi SE 12.7 mph - N/A   Mostly Cloudy
10:35 AM 42.8 °F 37.0 °F 28.4 °F 57% 30.29 in 10.0 mi SSE 10.4 mph - N/A   Mostly Cloudy
10:55 AM 44.6 °F 39.7 °F 28.4 °F 53% 30.28 in 10.0 mi SSE 9.2 mph - N/A   Scattered Clouds
11:15 AM 46.4 °F 41.9 °F 28.4 °F 50% 30.28 in 10.0 mi SE 9.2 mph - N/A   Scattered Clouds
11:35 AM 46.4 °F 42.9 °F 26.6 °F 46% 30.28 in 10.0 mi SE 6.9 mph - N/A   Scattered Clouds
11:55 AM 46.4 °F 41.9 °F 24.8 °F 43% 30.28 in 10.0 mi SSE 9.2 mph - N/A   Scattered Clouds
12:15 PM 50.0 °F - 26.6 °F 40% 30.27 in 10.0 mi SE 10.4 mph - N/A   Scattered Clouds
12:35 PM 51.8 °F - 24.8 °F 35% 30.27 in 10.0 mi SSE 9.2 mph - N/A   Clear
12:55 PM 51.8 °F - 26.6 °F 38% 30.25 in 10.0 mi SSE 9.2 mph - N/A   Clear
1:15 PM 51.8 °F - 24.8 °F 35% 30.25 in 10.0 mi South 10.4 mph - N/A   Clear
1:35 PM 53.6 °F - 26.6 °F 35% 30.23 in 10.0 mi SE 10.4 mph - N/A   Clear
1:55 PM 53.6 °F - 26.6 °F 35% 30.22 in 10.0 mi SE 6.9 mph 16.1 mph N/A   Clear
2:15 PM 53.6 °F - 28.4 °F 38% 30.21 in 10.0 mi ESE 11.5 mph 18.4 mph N/A   Scattered Clouds
2:55 PM 57.2 °F - 28.4 °F 33% 30.18 in 10.0 mi SE 12.7 mph 17.3 mph N/A   Scattered Clouds
3:15 PM 57.2 °F - 28.4 °F 33% 30.18 in 10.0 mi SSE 11.5 mph 17.3 mph N/A   Scattered Clouds
3:35 PM 59.0 °F - 30.2 °F 34% 30.17 in 10.0 mi SE 13.8 mph - N/A   Scattered Clouds
3:55 PM 59.0 °F - 28.4 °F 31% 30.16 in 10.0 mi SSE 11.5 mph 18.4 mph N/A   Clear
4:15 PM 57.2 °F - 28.4 °F 33% 30.15 in 10.0 mi SE 12.7 mph 16.1 mph N/A   Clear
4:35 PM 57.2 °F - 30.2 °F 36% 30.15 in 10.0 mi South 12.7 mph - N/A   Clear
4:55 PM 57.2 °F - 26.6 °F 31% 30.15 in 10.0 mi South 15.0 mph - N/A   Clear
5:15 PM 57.2 °F - 24.8 °F 29% 30.15 in 10.0 mi SSE 5.8 mph 16.1 mph N/A   Scattered Clouds
5:35 PM 55.4 °F - 30.2 °F 38% 30.15 in 10.0 mi SE 12.7 mph 17.3 mph N/A   Mostly Cloudy
5:55 PM 55.4 °F - 30.2 °F 38% 30.14 in 10.0 mi ESE 8.1 mph - N/A   Mostly Cloudy
6:15 PM 53.6 °F - 30.2 °F 41% 30.15 in 10.0 mi ESE 8.1 mph - N/A   Scattered Clouds
6:35 PM 53.6 °F - 32.0 °F 44% 30.15 in 10.0 mi East 4.6 mph - N/A   Clear
6:55 PM 51.8 °F - 30.2 °F 44% 30.16 in 10.0 mi East 5.8 mph - N/A   Clear
7:15 PM 51.8 °F - 30.2 °F 44% 30.17 in 10.0 mi East 4.6 mph - N/A   Clear
7:35 PM 50.0 °F - 28.4 °F 43% 30.18 in 10.0 mi East 5.8 mph - N/A   Scattered Clouds
7:55 PM 48.2 °F - 30.2 °F 50% 30.18 in 10.0 mi East 6.9 mph - N/A   Clear
8:15 PM 46.4 °F 41.5 °F 30.2 °F 53% 30.18 in 10.0 mi ESE 10.4 mph - N/A   Clear
8:35 PM 44.6 °F 39.7 °F 30.2 °F 57% 30.19 in 10.0 mi ESE 9.2 mph - N/A   Clear
8:55 PM 44.6 °F 39.7 °F 30.2 °F 57% 30.19 in 10.0 mi ESE 9.2 mph - N/A   Scattered Clouds
9:15 PM 46.4 °F 41.9 °F 28.4 °F 50% 30.19 in 10.0 mi East 9.2 mph - N/A   Mostly Cloudy
9:35 PM 44.6 °F 39.7 °F 30.2 °F 57% 30.19 in 10.0 mi East 9.2 mph - N/A   Overcast
9:55 PM 44.6 °F 39.2 °F 30.2 °F 57% 30.19 in 10.0 mi ESE 10.4 mph - N/A   Overcast
10:15 PM 46.4 °F 40.7 °F 30.2 °F 53% 30.20 in 10.0 mi ESE 12.7 mph - N/A   Overcast
10:35 PM 46.4 °F 41.1 °F 30.2 °F 53% 30.19 in 10.0 mi ESE 11.5 mph - N/A   Overcast
10:55 PM 46.4 °F 41.1 °F 30.2 °F 53% 30.19 in 10.0 mi ESE 11.5 mph - N/A   Overcast
11:15 PM 46.4 °F 41.1 °F 30.2 °F 53% 30.19 in 10.0 mi ESE 11.5 mph - N/A   Overcast
11:35 PM 46.4 °F 41.5 °F 30.2 °F 53% 30.19 in 10.0 mi ESE 10.4 mph - N/A   Overcast
11:55 PM 44.6 °F 38.8 °F 32.0 °F 61% 30.19 in 10.0 mi ESE 11.5 mph - N/A   Overcast